Weather History for La Junta, CO

Change the Weather History Date:

Saturday, October 12, 2013

  Actual Average Record
Temperature  
Mean Temperature 53 °F 56 °F  
Max Temperature 66 °F 71 °F 95 °F (1975)
Min Temperature 39 °F 40 °F 14 °F (1969)
Degree Days  
Heating Degree Days 12 10  
Month to date heating degree days 70 94  
Since 1 July heating degree days 82 167  
Cooling Degree Days 0 0  
Month to date cooling degree days 8 7  
Year to date cooling degree days 1663 1223  
Growing Degree Days 2 (Base 50)    
Moisture  
Dew Point 35 °F    
Average Humidity 60    
Maximum Humidity 92    
Minimum Humidity 28    
Precipitation  
Precipitation 0.00 in 0.03 in 0.93 in (1974)
Month to date precipitation 0.14 0.34  
Year to date precipitation 4.86 10.25  
Sea Level Pressure  
Sea Level Pressure 30.09 in    
Wind  
Wind Speed 12 mph (ESE)    
Max Wind Speed 21 mph    
Max Gust Speed 24 mph    
Visibility 10 miles    
Events      
T = Trace of Precipitation, MM = Missing Value Source: NWS Daily Summary

Daily Weather History Graph

Daily Weather History Graph

Search for Another Location

Airport:

Trip Planner

Search our weather history database for the weather conditions in past years. The results will help you decide how hot, cold, wet, or windy it might be!

Date:

Astronomy

Oct. 12, 2013 Rise Set
Actual Time 7:00 AM MDT 6:20 PM MDT
Civil Twilight 6:33 AM MDT 6:46 PM MDT
Nautical Twilight 6:03 AM MDT 7:17 PM MDT
Astronomical Twilight 5:32 AM MDT 7:47 PM MDT
Moon 2:26 PM MDT (10/12) 12:11 AM MDT (10/12)
Length of Visible Light 12h 12m
Length of Day
11h 20m
First Quarter, 59% of the Moon is Illuminated
Oct 12
First Quarter
Oct 18
Full
Oct 26
Last Quarter
Nov 3
New
Nov 9
First Quarter

Hourly Weather History & Observations

Time (MDT) Temp. Dew Point Humidity Pressure Visibility Wind Dir Wind Speed Gust Speed Precip Events Conditions
12:53 AM 45.0 °F 39.0 °F 80% 30.00 in 10.0 mi North - - N/A   Clear
1:53 AM 43.0 °F 39.0 °F 86% 30.02 in 10.0 mi North - - N/A   Clear
2:53 AM 42.1 °F 39.0 °F 89% 30.03 in 10.0 mi North - - N/A   Clear
3:53 AM 42.1 °F 39.0 °F 89% 30.04 in 10.0 mi North - - N/A   Clear
4:53 AM 39.9 °F 37.0 °F 89% 30.06 in 10.0 mi North - - N/A   Clear
5:53 AM 39.9 °F 37.0 °F 89% 30.10 in 10.0 mi North - - N/A   Clear
6:53 AM 41.0 °F 37.9 °F 89% 30.12 in 10.0 mi North - - N/A   Clear
7:53 AM 43.0 °F 37.9 °F 82% 30.14 in 10.0 mi North - - N/A   Clear
8:53 AM 46.9 °F 39.9 °F 77% 30.17 in 10.0 mi North - - N/A   Clear
9:53 AM 51.1 °F 41.0 °F 68% 30.18 in 10.0 mi North - - N/A   Clear
10:53 AM 55.9 °F 37.9 °F 51% 30.16 in 10.0 mi North - - N/A   Scattered Clouds
11:53 AM 59.0 °F 37.0 °F 44% 30.14 in 10.0 mi North - - N/A   Scattered Clouds
12:53 PM 60.1 °F 33.1 °F 36% 30.11 in 10.0 mi North - - N/A   Partly Cloudy
1:53 PM 63.0 °F 33.1 °F 33% 30.07 in 10.0 mi North - - N/A   Mostly Cloudy
2:53 PM 64.9 °F 32.0 °F 29% 30.05 in 10.0 mi North - - N/A   Partly Cloudy
3:53 PM 64.9 °F 32.0 °F 29% 30.04 in 10.0 mi North - - N/A   Partly Cloudy
4:53 PM 64.0 °F 30.9 °F 29% 30.04 in 10.0 mi North - - N/A   Clear
5:53 PM 62.1 °F 32.0 °F 32% 30.05 in 10.0 mi North - - N/A   Clear
6:53 PM 57.0 °F 32.0 °F 39% 30.08 in 10.0 mi North - - N/A   Clear
7:53 PM 55.9 °F 32.0 °F 40% 30.09 in 10.0 mi North - - N/A   Clear
8:53 PM 52.0 °F 32.0 °F 47% 30.11 in 10.0 mi ESE 13.8 mph - N/A   Clear
9:53 PM 52.0 °F 32.0 °F 47% 30.10 in 10.0 mi ESE 16.1 mph - N/A   Clear
10:53 PM 48.9 °F 33.1 °F 54% 30.11 in 10.0 mi ESE 12.7 mph - N/A   Clear
11:53 PM 48.0 °F 34.0 °F 58% 30.11 in 10.0 mi ESE 16.1 mph - N/A   Clear